Total_Precipitation_Accumulation
0.15 0.39 0.89 1.36 1.95 2.19 1.67 0.89 0.72 0.54 0.49 0.60 0.57 0.48 0.54 0.76 1.16 2.03 2.09 2.14 1.77 1.66 1.82 2.30 2.75 2.47 2.15 1.98 2.01 2.00 1.78 1.74 1.78 1.83 1.84 1.97 1.98 1.87 1.93 2.21 2.52 2.75 2.98 2.76 2.46 2.25 2.14 2.06 1.83
0.32 0.65 1.14 1.63 2.27 2.32 1.53 0.80 0.63 0.47 0.52 0.57 0.48 0.43 0.54 0.63 0.75 1.22 1.78 1.95 1.48 1.31 1.50 1.83 2.23 2.22 1.97 1.78 1.77 1.70 1.66 1.64 1.71 1.82 1.75 1.81 1.87 1.89 2.05 2.38 2.55 2.63 2.50 2.16 2.11 2.02 1.90 1.72 1.65
0.56 0.90 1.30 1.69 1.72 1.58 0.97 0.53 0.46 0.42 0.54 0.57 0.49 0.49 0.67 0.93 1.04 1.31 1.48 1.42 1.18 1.15 1.37 1.84 2.06 1.95 1.79 1.67 1.59 1.51 1.52 1.60 1.67 1.68 1.70 1.81 1.84 1.94 2.17 2.42 2.45 2.29 2.03 1.88 1.92 1.80 1.71 1.49 1.40
0.72 1.05 1.21 1.28 1.12 0.87 0.59 0.45 0.40 0.41 0.54 0.50 0.48 0.72 1.00 1.19 1.05 1.10 1.13 1.06 0.96 1.04 1.35 1.76 1.78 1.51 1.43 1.43 1.37 1.35 1.39 1.55 1.61 1.56 1.71 1.85 1.92 1.97 2.08 2.15 2.18 2.06 1.82 1.76 1.66 1.53 1.49 1.39 1.32
0.81 1.14 1.30 1.05 0.78 0.59 0.47 0.41 0.40 0.39 0.40 0.49 0.60 1.00 1.39 1.44 1.02 1.04 1.07 0.92 0.82 1.07 1.36 1.48 1.51 1.30 1.19 1.24 1.22 1.25 1.37 1.57 1.61 1.55 1.60 1.66 1.72 1.81 1.81 1.80 1.85 1.88 1.72 1.59 1.51 1.45 1.33 1.38 1.34
0.96 1.00 0.95 0.75 0.58 0.43 0.45 0.42 0.37 0.36 0.43 0.52 0.67 0.86 1.53 1.60 1.22 1.29 1.17 1.11 1.03 1.17 1.30 1.46 1.48 1.26 1.14 1.17 1.17 1.20 1.43 1.67 1.64 1.51 1.50 1.48 1.48 1.53 1.56 1.62 1.70 1.74 1.59 1.47 1.42 1.36 1.28 1.26 1.26
0.78 0.79 0.64 0.48 0.43 0.40 0.38 0.35 0.34 0.37 0.52 0.63 0.72 1.01 1.71 1.94 1.52 1.36 1.36 1.39 1.28 1.37 1.54 1.51 1.33 1.26 1.35 1.44 1.46 1.49 1.72 1.78 1.67 1.63 1.54 1.46 1.41 1.42 1.49 1.49 1.56 1.58 1.50 1.45 1.34 1.32 1.24 1.17 1.18
0.52 0.47 0.39 0.29 0.28 0.36 0.30 0.27 0.31 0.40 0.55 0.69 0.85 1.19 1.86 1.91 1.57 1.44 1.46 1.64 1.51 1.47 1.45 1.40 1.22 1.19 1.26 1.52 1.86 1.90 1.87 1.86 1.80 1.73 1.66 1.52 1.43 1.48 1.54 1.41 1.61 1.63 1.63 1.59 1.58 1.66 1.38 1.29 1.35
0.33 0.39 0.34 0.24 0.21 0.28 0.26 0.24 0.30 0.43 0.56 0.68 0.95 1.19 1.39 1.39 1.47 1.44 1.65 1.98 2.02 1.76 1.61 1.43 1.13 1.21 1.44 1.71 1.86 1.95 1.95 2.06 2.13 2.08 1.95 1.89 1.98 1.94 2.04 1.81 2.13 2.10 2.08 2.00 2.04 2.06 1.85 1.75 1.64
0.29 0.30 0.27 0.20 0.18 0.20 0.19 0.20 0.30 0.57 0.76 1.05 1.34 1.34 1.21 1.22 1.43 1.57 1.79 2.19 2.28 2.14 1.92 1.67 1.41 1.44 1.69 1.70 1.70 1.84 1.87 2.06 2.20 2.29 2.18 2.49 2.77 2.64 2.08 2.37 2.77 2.87 2.78 2.64 2.67 2.73 2.43 2.12 1.91
0.18 0.19 0.17 0.19 0.18 0.15 0.13 0.19 0.26 0.45 0.97 1.51 1.77 1.73 1.56 1.34 1.55 1.89 2.27 2.58 2.36 2.15 2.07 2.00 1.83 1.80 1.72 1.79 1.77 1.95 2.14 2.51 2.42 2.32 2.35 2.80 2.71 2.43 2.24 2.54 3.04 3.38 3.14 2.88 2.97 3.07 2.59 2.62 2.90
0.13 0.14 0.11 0.13 0.13 0.10 0.12 0.19 0.32 0.47 0.97 1.26 1.44 1.53 1.54 1.52 1.63 1.86 2.17 2.45 2.66 2.64 2.54 2.42 2.31 2.21 2.20 2.12 2.00 1.96 2.08 2.33 2.44 2.64 2.41 2.75 3.00 2.89 2.86 3.16 3.20 3.43 3.50 3.81 3.59 3.65 3.42 3.35 3.18
0.14 0.12 0.10 0.09 0.10 0.10 0.13 0.22 0.36 0.53 0.79 0.85 0.92 1.04 1.30 1.56 1.96 2.26 2.39 2.72 2.86 3.04 2.94 2.91 2.83 2.79 2.79 2.72 2.57 2.12 2.28 2.39 2.53 2.84 2.82 2.94 3.27 3.39 3.43 3.44 3.38 3.13 3.41 3.80 4.06 3.65 3.96 4.00 3.58
0.13 0.12 0.10 0.11 0.11 0.13 0.17 0.26 0.39 0.60 0.71 0.74 0.82 0.99 1.25 1.60 1.90 2.34 2.64 3.06 3.08 3.16 3.37 3.57 3.50 3.37 3.42 3.30 3.19 2.98 2.77 2.96 2.96 3.14 3.33 3.46 3.76 3.95 3.91 3.74 3.65 3.27 3.22 3.52 3.73 3.73 4.18 4.01 3.77
0.12 0.14 0.16 0.15 0.14 0.17 0.30 0.48 0.62 0.75 0.75 0.90 0.98 1.22 1.39 1.69 2.07 2.18 2.39 2.68 3.02 3.32 3.86 4.25 4.28 4.16 4.18 4.10 3.82 3.57 3.49 3.52 3.80 4.03 4.06 4.00 4.13 4.44 4.23 3.98 3.58 3.33 3.33 3.57 3.55 3.60 3.73 3.54 3.43
0.16 0.22 0.34 0.29 0.21 0.21 0.36 0.79 0.86 0.84 0.90 1.07 1.10 1.33 1.65 1.74 2.08 2.22 2.28 2.51 3.13 3.60 4.25 4.70 4.87 5.04 4.93 4.91 4.66 4.27 4.14 4.15 4.22 4.36 4.52 4.24 4.22 4.16 4.20 3.82 3.36 3.37 3.36 3.46 3.63 3.50 3.58 3.52 3.49
0.23 0.31 0.41 0.42 0.27 0.26 0.40 0.78 0.89 0.86 1.02 1.14 1.29 1.35 1.50 1.73 2.17 2.46 2.62 2.77 3.30 3.91 4.64 5.23 5.82 6.03 5.87 5.58 5.21 4.87 4.83 4.72 4.57 4.59 4.58 4.36 4.07 3.90 4.12 3.77 3.53 3.43 3.40 3.31 3.08 3.56 3.71 3.67 3.63
0.29 0.30 0.38 0.46 0.29 0.28 0.48 0.71 0.91 0.99 1.11 1.26 1.29 1.29 1.43 1.76 1.99 2.36 2.71 3.09 3.53 3.96 4.78 5.56 6.32 6.53 6.23 5.68 5.37 5.30 5.15 4.86 4.63 4.42 4.33 4.01 3.84 3.54 3.78 3.47 3.36 3.46 3.62 3.47 3.50 3.85 3.86 3.50 3.53
0.19 0.24 0.36 0.41 0.29 0.33 0.51 0.71 0.91 1.06 1.21 1.26 1.39 1.38 1.58 1.85 2.02 2.41 2.78 3.25 3.69 4.21 4.98 5.67 6.26 6.37 6.23 5.86 5.48 5.24 4.79 4.49 4.23 3.98 3.81 3.55 3.27 3.15 3.52 3.26 3.61 3.42 3.39 3.24 3.20 3.36 3.40 3.05 3.22
0.15 0.24 0.39 0.41 0.29 0.35 0.54 0.77 1.05 1.11 1.08 1.08 1.29 1.37 1.44 1.64 1.95 2.32 2.87 3.18 3.54 4.09 4.67 5.08 5.16 4.94 4.87 4.91 4.81 4.56 4.57 4.41 4.36 4.19 4.04 3.52 3.33 3.21 3.00 3.24 3.07 3.03 3.17 2.96 2.89 3.10 3.10 2.79 3.06
0.14 0.22 0.29 0.33 0.36 0.45 0.64 1.02 1.29 1.28 1.07 0.98 1.01 1.12 1.23 1.36 1.57 1.92 2.53 2.87 3.05 3.58 3.95 3.95 3.88 3.82 3.96 4.03 3.97 4.02 4.28 4.37 4.45 4.41 4.16 3.73 3.52 3.36 3.20 3.09 2.91 2.85 2.68 2.85 2.88 2.91 3.03 3.01 2.90
0.15 0.16 0.19 0.24 0.37 0.67 0.78 1.31 1.61 1.67 1.45 1.14 1.01 1.12 1.20 1.29 1.33 1.64 1.99 2.25 2.53 2.83 3.00 2.97 3.03 3.16 3.29 3.37 3.39 3.27 3.31 3.59 3.86 4.10 4.18 4.06 3.80 3.57 3.25 3.05 2.81 2.65 2.50 2.80 2.49 2.60 2.92 3.13 2.82
0.12 0.12 0.17 0.26 0.37 0.56 0.68 1.02 1.57 1.86 1.84 1.45 1.16 1.06 1.01 1.16 1.38 1.57 1.69 1.88 2.00 2.09 2.23 2.32 2.56 2.95 3.16 3.27 3.41 3.31 2.98 3.00 3.09 3.26 3.45 3.46 3.48 3.33 2.98 2.85 2.76 2.57 2.41 2.47 2.48 2.78 2.79 2.78 2.71
0.11 0.17 0.27 0.40 0.60 0.91 0.81 0.91 1.44 1.68 1.73 1.37 1.14 1.04 0.95 0.94 1.09 1.30 1.59 1.70 1.69 1.67 1.83 2.07 2.38 2.88 3.17 3.29 3.23 3.20 3.11 3.10 3.04 3.03 3.12 3.03 3.02 2.97 2.72 2.58 2.66 2.50 2.41 2.47 2.48 2.60 2.66 2.81 2.88
0.13 0.24 0.64 1.09 1.43 1.49 0.91 0.89 1.14 1.21 1.10 1.09 0.96 0.91 0.97 0.90 0.87 0.87 1.07 1.33 1.33 1.29 1.48 1.74 1.96 2.43 2.74 2.90 2.82 2.76 2.89 2.98 2.84 2.67 2.64 2.62 2.47 2.43 2.41 2.46 2.56 2.41 2.41 2.50 2.62 2.67 2.65 2.77 2.83
0.13 0.19 0.49 0.83 1.03 1.16 1.03 1.37 1.46 1.08 0.89 0.80 0.70 0.73 0.82 0.74 0.66 0.63 0.69 0.88 1.13 1.16 1.25 1.39 1.62 1.91 2.21 2.40 2.48 2.58 2.77 2.85 2.77 2.92 2.66 2.52 2.21 2.07 2.14 2.35 2.40 2.34 2.29 2.31 2.73 2.71 2.73 2.84 2.79
0.15 0.16 0.24 0.37 0.54 0.87 1.17 1.38 1.32 1.09 1.02 0.83 0.66 0.61 0.61 0.58 0.55 0.55 0.62 0.82 0.91 0.94 1.03 1.19 1.39 1.59 1.82 2.07 2.28 2.37 2.37 2.38 2.51 2.66 2.60 2.44 2.36 2.11 2.15 2.22 2.43 2.53 2.62 2.67 2.84 2.77 2.77 2.97 2.93
0.15 0.16 0.21 0.30 0.50 0.74 1.06 1.47 1.56 1.38 1.17 0.98 0.89 0.70 0.58 0.60 0.60 0.56 0.58 0.67 0.74 0.80 0.92 1.12 1.32 1.35 1.58 1.98 2.26 2.24 2.32 2.25 2.40 2.38 2.36 2.39 2.29 2.22 2.28 2.29 2.37 2.52 2.62 2.67 2.82 2.82 2.87 3.04 3.05
0.19 0.17 0.18 0.24 0.28 0.44 0.92 1.23 1.12 1.13 1.06 0.99 0.87 0.76 0.71 0.68 0.65 0.62 0.62 0.62 0.74 0.68 0.77 0.95 1.09 1.24 1.55 1.92 2.25 2.38 2.33 2.30 2.37 2.21 2.15 2.26 2.26 2.23 2.32 2.34 2.33 2.30 2.41 2.59 2.82 2.76 2.91 3.03 3.06
0.19 0.19 0.20 0.27 0.27 0.30 0.50 0.83 0.68 0.76 0.87 0.90 0.75 0.68 0.65 0.56 0.53 0.50 0.49 0.55 0.55 0.57 0.69 0.99 1.31 1.65 1.86 2.19 2.54 2.71 2.51 2.29 2.14 1.96 1.94 2.08 2.24 2.28 2.30 2.31 2.31 2.23 2.32 2.57 2.72 2.81 3.05 3.17 3.04